Temp
-7 -7 -7 -7 -7 -7 -8 -8 -9 -9 -9 -9 -9 -9 -9 -9 -10 -10 -10 -10 -10 -10 -10 -10 -11 -11 -11 -12 -12 -12 -13 -13 -13 -13 -13 -14 -14 -14 -15 -16 -16 -16 -16 -16 -17 -17 -17 -17 -17 -17 -17 -17 -16 -16 -16 -16 -16 -16 -16 -16 -16 -16 -16
-7 -8 -8 -8 -8 -8 -8 -9 -9 -9 -9 -9 -9 -10 -10 -10 -10 -10 -10 -11 -11 -11 -11 -11 -11 -11 -12 -12 -13 -13 -13 -13 -13 -14 -14 -14 -15 -15 -16 -16 -17 -17 -17 -17 -17 -18 -18 -18 -17 -17 -17 -17 -17 -17 -17 -17 -16 -16 -16 -16 -17 -17 -17
-8 -8 -8 -8 -8 -9 -9 -9 -9 -10 -10 -10 -10 -10 -10 -10 -11 -11 -11 -11 -11 -11 -12 -12 -12 -12 -13 -13 -13 -13 -14 -14 -14 -14 -14 -15 -15 -16 -16 -17 -18 -18 -18 -18 -18 -18 -18 -18 -18 -18 -17 -17 -17 -17 -17 -17 -17 -18 -17 -17 -17 -17 -17
-9 -9 -9 -9 -9 -9 -9 -10 -10 -10 -10 -10 -10 -11 -11 -11 -11 -11 -11 -12 -12 -12 -13 -13 -13 -13 -13 -14 -14 -14 -14 -14 -14 -15 -15 -15 -16 -16 -17 -18 -18 -19 -19 -19 -18 -18 -18 -18 -18 -18 -18 -18 -18 -18 -18 -18 -18 -18 -18 -18 -18 -18 -18
-9 -9 -10 -10 -10 -10 -10 -10 -11 -11 -11 -11 -11 -11 -11 -12 -12 -12 -12 -12 -13 -13 -13 -14 -14 -14 -14 -14 -14 -14 -14 -15 -15 -15 -16 -16 -16 -17 -18 -18 -19 -19 -19 -19 -19 -19 -19 -19 -18 -18 -18 -18 -18 -19 -19 -19 -19 -19 -19 -19 -19 -19 -19
-10 -10 -10 -11 -11 -11 -11 -11 -11 -11 -11 -12 -12 -12 -12 -12 -12 -13 -13 -13 -14 -14 -14 -14 -14 -14 -14 -15 -15 -15 -15 -15 -16 -16 -16 -17 -17 -18 -18 -19 -19 -20 -20 -19 -19 -19 -19 -19 -19 -19 -19 -19 -19 -19 -19 -19 -19 -19 -19 -19 -19 -19 -19
-11 -11 -11 -11 -12 -12 -12 -12 -12 -12 -12 -12 -12 -12 -13 -13 -13 -14 -14 -14 -14 -15 -15 -15 -15 -15 -15 -15 -15 -16 -16 -16 -16 -17 -17 -17 -18 -18 -19 -19 -20 -20 -20 -20 -19 -19 -19 -19 -19 -19 -19 -19 -19 -20 -19 -20 -20 -20 -20 -20 -20 -19 -19
-12 -12 -12 -12 -12 -12 -12 -12 -12 -12 -13 -13 -13 -13 -14 -14 -14 -14 -15 -15 -15 -15 -15 -15 -15 -15 -16 -16 -16 -16 -16 -16 -17 -17 -18 -18 -19 -19 -19 -20 -20 -20 -20 -20 -20 -20 -19 -20 -19 -19 -19 -20 -20 -20 -20 -20 -21 -20 -20 -20 -20 -20 -20
-13 -13 -13 -13 -13 -13 -13 -13 -13 -13 -13 -14 -14 -14 -14 -15 -15 -15 -15 -15 -15 -15 -15 -15 -16 -16 -16 -16 -16 -16 -17 -17 -17 -18 -18 -19 -19 -19 -20 -20 -20 -20 -20 -20 -20 -20 -20 -20 -20 -19 -20 -20 -20 -20 -21 -21 -21 -21 -20 -21 -21 -20 -20
-13 -13 -13 -13 -13 -13 -13 -14 -14 -14 -14 -15 -15 -15 -15 -15 -15 -15 -15 -15 -15 -16 -16 -16 -16 -16 -16 -16 -17 -17 -17 -17 -18 -18 -19 -19 -19 -20 -20 -20 -20 -20 -21 -21 -21 -20 -20 -20 -20 -20 -20 -21 -21 -21 -21 -21 -22 -21 -21 -21 -21 -20 -21
-13 -13 -14 -14 -14 -14 -14 -14 -15 -15 -15 -15 -15 -16 -16 -16 -16 -16 -16 -16 -16 -16 -16 -16 -17 -17 -17 -17 -17 -17 -17 -18 -18 -18 -19 -19 -19 -20 -20 -20 -21 -21 -21 -21 -21 -21 -21 -20 -20 -20 -21 -21 -21 -22 -22 -22 -22 -22 -22 -22 -21 -21 -21
-14 -14 -14 -14 -14 -15 -15 -15 -15 -16 -16 -16 -16 -16 -16 -16 -16 -16 -16 -16 -16 -17 -17 -17 -17 -17 -17 -17 -17 -17 -18 -18 -18 -19 -19 -20 -20 -20 -20 -21 -21 -22 -22 -22 -21 -21 -21 -21 -20 -21 -21 -21 -22 -22 -23 -23 -23 -23 -23 -23 -22 -22 -22
-14 -15 -15 -15 -15 -15 -15 -16 -16 -16 -16 -16 -16 -17 -17 -17 -17 -17 -17 -17 -17 -17 -17 -17 -17 -18 -18 -18 -18 -18 -18 -18 -19 -19 -19 -20 -20 -20 -20 -21 -22 -22 -22 -22 -22 -21 -21 -21 -21 -21 -22 -22 -23 -23 -23 -23 -23 -23 -24 -23 -23 -23 -23
-15 -15 -15 -15 -16 -16 -16 -16 -16 -16 -17 -17 -17 -17 -17 -17 -17 -17 -17 -18 -18 -18 -18 -18 -18 -18 -18 -18 -18 -18 -19 -19 -19 -20 -20 -20 -20 -20 -21 -21 -22 -22 -22 -22 -22 -21 -21 -21 -22 -22 -22 -23 -23 -23 -23 -24 -24 -24 -24 -24 -24 -23 -23
-15 -15 -16 -16 -16 -16 -16 -16 -16 -17 -17 -17 -17 -18 -18 -18 -18 -17 -18 -18 -18 -18 -18 -18 -19 -19 -19 -19 -19 -19 -19 -19 -20 -20 -20 -20 -21 -21 -21 -22 -22 -22 -22 -22 -22 -22 -22 -22 -22 -23 -23 -23 -24 -24 -24 -24 -25 -25 -25 -24 -24 -24 -23
-16 -16 -16 -16 -16 -16 -16 -17 -17 -17 -17 -17 -18 -18 -18 -18 -18 -18 -18 -18 -18 -18 -19 -19 -19 -19 -19 -19 -19 -20 -20 -20 -20 -21 -21 -21 -21 -22 -22 -22 -22 -22 -23 -22 -22 -22 -22 -23 -23 -23 -23 -24 -24 -24 -25 -25 -25 -25 -25 -25 -24 -24 -24
-16 -16 -16 -16 -17 -17 -17 -17 -17 -17 -17 -18 -18 -18 -19 -19 -19 -18 -18 -18 -19 -19 -19 -19 -20 -20 -20 -20 -20 -20 -20 -21 -21 -21 -22 -22 -22 -22 -22 -22 -22 -23 -23 -23 -23 -23 -23 -23 -23 -24 -24 -24 -24 -25 -25 -26 -26 -25 -26 -26 -25 -24 -25
-17 -17 -17 -17 -17 -17 -17 -17 -18 -18 -18 -18 -18 -19 -19 -19 -19 -19 -19 -19 -19 -19 -20 -20 -20 -20 -20 -21 -21 -21 -21 -22 -22 -22 -22 -23 -23 -23 -23 -23 -23 -23 -23 -23 -24 -24 -24 -24 -24 -24 -24 -25 -25 -25 -26 -26 -25 -25 -26 -26 -25 -25 -25
-17 -17 -17 -17 -17 -17 -17 -18 -18 -18 -18 -18 -19 -19 -20 -20 -20 -20 -20 -20 -20 -20 -20 -20 -21 -21 -21 -21 -22 -22 -22 -23 -23 -23 -23 -23 -23 -23 -23 -23 -24 -24 -24 -24 -24 -24 -24 -25 -25 -25 -25 -25 -25 -26 -27 -27 -26 -26 -26 -26 -26 -26 -26
-17 -17 -18 -18 -18 -18 -18 -18 -18 -18 -19 -19 -19 -20 -20 -20 -20 -20 -20 -20 -20 -21 -21 -21 -21 -22 -22 -22 -23 -23 -23 -23 -23 -23 -23 -23 -23 -23 -23 -24 -24 -24 -24 -24 -25 -25 -25 -25 -25 -26 -26 -26 -26 -26 -27 -27 -27 -27 -27 -27 -27 -27 -27
-18 -18 -18 -18 -18 -18 -18 -19 -19 -19 -19 -19 -19 -20 -20 -21 -21 -21 -21 -21 -21 -22 -22 -22 -22 -22 -23 -23 -23 -24 -24 -24 -24 -24 -24 -24 -24 -24 -24 -24 -25 -25 -25 -25 -25 -25 -26 -26 -26 -26 -26 -26 -26 -26 -27 -27 -27 -27 -28 -28 -28 -28 -28
-18 -18 -19 -19 -19 -19 -19 -19 -19 -19 -19 -20 -20 -20 -21 -21 -21 -22 -22 -22 -22 -22 -22 -22 -23 -23 -23 -24 -24 -24 -24 -24 -24 -25 -25 -24 -24 -24 -24 -25 -25 -25 -25 -25 -25 -25 -26 -26 -26 -26 -26 -26 -27 -27 -27 -27 -28 -28 -28 -28 -28 -29 -29
-19 -19 -19 -19 -19 -19 -20 -20 -20 -20 -20 -20 -21 -21 -21 -21 -22 -22 -23 -23 -23 -23 -23 -23 -23 -23 -24 -24 -24 -24 -24 -25 -25 -25 -25 -25 -25 -25 -26 -26 -26 -25 -25 -25 -25 -25 -26 -26 -26 -26 -26 -26 -27 -27 -27 -28 -28 -29 -29 -29 -29 -29 -29
-19 -19 -19 -20 -20 -20 -20 -20 -20 -20 -21 -21 -21 -22 -22 -22 -22 -23 -23 -23 -23 -23 -23 -23 -23 -23 -24 -24 -24 -24 -25 -25 -25 -25 -25 -26 -26 -26 -27 -27 -27 -27 -27 -26 -26 -26 -26 -25 -26 -26 -26 -27 -27 -28 -28 -28 -29 -29 -29 -29 -29 -29 -30
-20 -20 -20 -20 -20 -20 -21 -21 -21 -21 -21 -22 -22 -22 -22 -23 -23 -23 -23 -23 -23 -23 -24 -24 -24 -24 -24 -24 -25 -25 -25 -25 -25 -26 -26 -26 -26 -27 -27 -27 -27 -28 -28 -28 -27 -27 -26 -26 -26 -27 -27 -27 -28 -28 -29 -29 -29 -30 -30 -30 -30 -30 -30
-20 -20 -20 -20 -20 -21 -21 -21 -21 -22 -22 -22 -22 -23 -23 -23 -23 -24 -24 -24 -24 -24 -24 -25 -25 -25 -25 -25 -25 -25 -26 -26 -26 -26 -26 -26 -27 -27 -27 -27 -27 -28 -28 -28 -28 -28 -27 -27 -27 -28 -28 -28 -29 -29 -29 -29 -29 -29 -30 -30 -30 -30 -30
-21 -21 -21 -21 -21 -21 -21 -22 -22 -22 -23 -23 -23 -23 -24 -24 -24 -24 -25 -25 -25 -25 -25 -25 -25 -25 -25 -25 -25 -26 -26 -26 -26 -26 -26 -26 -27 -27 -27 -28 -28 -28 -28 -28 -28 -28 -28 -28 -28 -29 -29 -29 -29 -30 -30 -30 -30 -30 -30 -30 -30 -30 -30
-22 -22 -22 -22 -22 -22 -22 -22 -23 -23 -23 -24 -24 -24 -24 -25 -25 -25 -25 -25 -25 -25 -25 -25 -26 -26 -26 -26 -26 -26 -26 -26 -27 -27 -27 -27 -27 -27 -28 -28 -28 -28 -28 -28 -29 -29 -29 -29 -29 -30 -30 -30 -30 -30 -30 -30 -30 -30 -30 -30 -30 -31 -30
-22 -23 -22 -22 -22 -22 -22 -23 -23 -23 -24 -24 -25 -25 -25 -25 -25 -25 -25 -26 -26 -26 -26 -26 -26 -26 -26 -26 -26 -27 -27 -27 -27 -27 -27 -28 -28 -28 -28 -28 -29 -29 -29 -29 -29 -29 -29 -30 -30 -30 -30 -31 -31 -31 -31 -31 -30 -30 -30 -30 -30 -30 -30
-23 -23 -23 -23 -23 -23 -23 -23 -23 -24 -24 -25 -25 -25 -26 -26 -26 -26 -26 -26 -26 -26 -26 -26 -27 -27 -27 -27 -27 -27 -27 -28 -28 -28 -28 -28 -28 -29 -29 -29 -29 -29 -30 -30 -30 -30 -30 -30 -30 -30 -31 -31 -31 -31 -31 -31 -31 -31 -30 -30 -30 -30 -30
-24 -24 -24 -24 -24 -24 -24 -24 -24 -24 -25 -25 -26 -26 -26 -26 -27 -27 -27 -27 -27 -26 -26 -27 -27 -27 -27 -28 -28 -28 -28 -28 -28 -29 -29 -29 -29 -30 -30 -30 -29 -30 -30 -30 -30 -30 -31 -31 -31 -31 -31 -31 -31 -31 -32 -32 -32 -31 -31 -31 -30 -30 -30
-25 -25 -25 -25 -25 -25 -25 -25 -25 -26 -26 -26 -26 -27 -27 -27 -27 -27 -27 -27 -28 -28 -28 -27 -28 -28 -28 -28 -28 -28 -29 -29 -29 -29 -29 -30 -30 -30 -30 -30 -30 -30 -30 -31 -31 -31 -31 -31 -31 -32 -32 -32 -32 -32 -32 -32 -32 -32 -31 -31 -31 -31 -31
-25 -25 -25 -26 -26 -26 -26 -26 -26 -26 -27 -27 -27 -28 -28 -27 -27 -27 -28 -28 -29 -29 -29 -29 -29 -29 -29 -29 -29 -29 -29 -29 -29 -30 -30 -30 -30 -30 -31 -31 -31 -31 -31 -31 -31 -31 -31 -31 -32 -32 -32 -32 -32 -32 -32 -32 -32 -32 -32 -31 -31 -31 -31
-26 -26 -26 -26 -26 -27 -27 -27 -27 -27 -28 -28 -28 -28 -28 -28 -28 -28 -29 -29 -29 -30 -30 -30 -30 -30 -30 -31 -30 -30 -30 -30 -30 -30 -30 -30 -30 -30 -31 -31 -31 -31 -31 -31 -31 -31 -31 -31 -32 -32 -32 -32 -32 -32 -33 -33 -33 -32 -32 -32 -31 -31 -31
-26 -27 -27 -27 -27 -27 -27 -27 -27 -28 -28 -28 -28 -28 -28 -28 -29 -29 -29 -30 -30 -30 -30 -30 -31 -31 -31 -31 -31 -31 -31 -31 -31 -31 -31 -31 -31 -31 -31 -31 -31 -31 -31 -31 -31 -31 -31 -32 -32 -32 -32 -32 -32 -33 -33 -33 -33 -33 -32 -32 -32 -32 -32
-26 -27 -27 -27 -27 -27 -27 -27 -28 -28 -28 -28 -28 -28 -28 -29 -29 -29 -29 -30 -30 -30 -31 -31 -31 -31 -31 -32 -32 -32 -32 -32 -32 -32 -32 -32 -32 -32 -32 -32 -31 -32 -32 -32 -32 -32 -32 -32 -32 -32 -32 -33 -33 -33 -33 -33 -33 -33 -33 -33 -32 -32 -32
Height
2953 2951 2949 2947 2946 2945 2944 2944 2943 2943 2942 2941 2941 2940 2940 2939 2938 2937 2938 2937 2936 2936 2936 2935 2936 2936 2937 2936 2936 2936 2936 2936 2936 2936 2936 2935 2934 2934 2934 2934 2933 2932 2933 2934 2934 2935 2936 2936 2936 2936 2937 2937 2936 2936 2935 2934 2933 2933 2933 2932 2931 2931 2931
2946 2944 2942 2940 2938 2937 2936 2935 2934 2934 2933 2932 2932 2932 2931 2931 2930 2929 2929 2929 2928 2928 2928 2927 2928 2928 2929 2928 2928 2929 2929 2929 2928 2928 2927 2926 2925 2925 2926 2925 2925 2924 2925 2926 2926 2927 2928 2928 2927 2928 2929 2929 2928 2928 2927 2927 2926 2925 2925 2924 2924 2924 2924
2938 2936 2934 2932 2930 2929 2927 2926 2926 2925 2924 2924 2923 2923 2923 2922 2921 2921 2921 2920 2920 2920 2919 2919 2919 2920 2921 2920 2920 2921 2921 2921 2920 2919 2919 2918 2917 2917 2917 2917 2917 2917 2917 2918 2919 2920 2920 2920 2920 2921 2921 2920 2920 2920 2919 2920 2920 2918 2917 2917 2917 2916 2917
2930 2928 2926 2924 2922 2921 2920 2918 2917 2916 2915 2915 2915 2914 2914 2913 2913 2912 2912 2912 2912 2912 2911 2911 2912 2913 2913 2912 2912 2913 2912 2912 2912 2911 2911 2910 2910 2909 2909 2909 2910 2910 2910 2910 2911 2912 2913 2913 2913 2913 2913 2912 2912 2912 2912 2912 2912 2912 2911 2911 2910 2909 2909
2922 2920 2918 2916 2915 2913 2912 2911 2909 2908 2907 2906 2906 2905 2905 2905 2904 2904 2903 2903 2904 2903 2903 2903 2904 2905 2905 2904 2904 2904 2904 2904 2904 2903 2903 2902 2902 2902 2902 2902 2902 2903 2902 2903 2903 2905 2906 2906 2906 2905 2906 2906 2905 2905 2905 2905 2905 2905 2905 2904 2903 2903 2902
2913 2911 2909 2908 2907 2905 2904 2903 2901 2900 2899 2898 2898 2897 2897 2896 2895 2895 2895 2895 2896 2896 2896 2896 2896 2897 2896 2895 2895 2895 2895 2895 2895 2895 2895 2894 2894 2894 2894 2894 2894 2895 2895 2895 2896 2897 2897 2898 2898 2898 2898 2898 2898 2898 2897 2897 2897 2898 2897 2896 2896 2895 2894
2904 2903 2901 2900 2898 2897 2896 2895 2893 2892 2891 2891 2890 2889 2888 2888 2887 2887 2887 2888 2888 2888 2888 2888 2888 2887 2887 2887 2887 2887 2887 2887 2887 2887 2886 2886 2886 2886 2886 2886 2887 2887 2887 2888 2889 2889 2890 2890 2891 2890 2890 2890 2890 2890 2890 2890 2890 2890 2889 2888 2887 2887 2886
2895 2894 2893 2891 2890 2889 2888 2887 2886 2885 2884 2883 2882 2881 2881 2880 2880 2880 2880 2880 2880 2880 2879 2879 2879 2878 2878 2878 2878 2878 2878 2878 2879 2878 2878 2878 2878 2878 2878 2878 2879 2879 2880 2880 2881 2882 2882 2883 2883 2883 2883 2883 2883 2883 2884 2883 2882 2880 2881 2880 2879 2878 2878
2887 2886 2885 2884 2882 2881 2880 2879 2878 2877 2876 2875 2874 2874 2873 2873 2873 2873 2872 2872 2872 2871 2871 2870 2870 2870 2870 2870 2870 2870 2870 2870 2870 2870 2870 2870 2870 2870 2871 2871 2871 2872 2872 2873 2874 2874 2875 2875 2875 2875 2875 2875 2876 2877 2877 2876 2873 2872 2873 2872 2870 2870 2870
2879 2878 2877 2876 2874 2873 2872 2871 2871 2870 2869 2868 2867 2867 2866 2866 2865 2865 2865 2864 2863 2863 2862 2862 2862 2862 2862 2862 2862 2862 2862 2862 2862 2862 2862 2862 2862 2863 2863 2864 2864 2864 2865 2866 2866 2867 2868 2868 2868 2868 2868 2868 2869 2869 2868 2868 2866 2865 2864 2862 2861 2862 2862
2871 2870 2869 2867 2866 2866 2865 2864 2863 2862 2861 2861 2860 2859 2859 2858 2858 2857 2857 2856 2855 2855 2855 2855 2855 2854 2854 2854 2854 2855 2855 2855 2855 2855 2855 2855 2855 2855 2856 2856 2857 2857 2858 2858 2859 2860 2861 2860 2860 2862 2861 2861 2862 2861 2861 2860 2859 2856 2855 2855 2854 2854 2854
2863 2862 2861 2859 2859 2858 2857 2856 2856 2855 2854 2853 2852 2852 2851 2851 2850 2849 2849 2848 2848 2848 2847 2847 2847 2847 2847 2847 2847 2847 2847 2847 2847 2847 2847 2847 2847 2848 2849 2849 2850 2850 2851 2851 2852 2853 2853 2853 2854 2855 2854 2853 2854 2853 2853 2852 2850 2849 2848 2847 2846 2846 2846
2855 2854 2853 2852 2851 2850 2850 2849 2848 2847 2847 2846 2845 2844 2843 2843 2842 2841 2841 2841 2840 2840 2840 2840 2839 2839 2839 2840 2840 2840 2840 2839 2839 2839 2839 2840 2840 2840 2841 2842 2843 2843 2843 2844 2844 2844 2845 2846 2847 2847 2847 2847 2846 2845 2843 2843 2843 2843 2842 2840 2839 2839 2839
2848 2847 2846 2845 2844 2843 2842 2842 2841 2840 2839 2838 2837 2836 2835 2835 2835 2834 2833 2833 2833 2833 2832 2832 2832 2831 2832 2832 2832 2832 2832 2832 2832 2832 2832 2832 2833 2833 2834 2835 2836 2836 2836 2836 2837 2837 2838 2839 2840 2839 2840 2839 2837 2836 2835 2835 2835 2836 2835 2833 2832 2831 2831
2841 2840 2839 2838 2837 2836 2835 2834 2833 2832 2832 2831 2830 2829 2827 2827 2826 2826 2825 2826 2825 2825 2824 2824 2824 2824 2824 2824 2824 2825 2825 2825 2825 2824 2825 2825 2826 2827 2827 2828 2829 2829 2829 2829 2830 2830 2831 2832 2832 2832 2832 2831 2829 2829 2828 2828 2828 2828 2827 2825 2824 2825 2825
2835 2833 2832 2831 2830 2829 2828 2827 2826 2825 2824 2823 2822 2821 2820 2819 2819 2818 2817 2817 2818 2818 2817 2817 2817 2816 2816 2817 2817 2818 2818 2818 2818 2818 2818 2818 2819 2820 2820 2820 2821 2822 2822 2822 2822 2822 2823 2824 2825 2824 2823 2823 2822 2821 2822 2821 2820 2819 2818 2817 2817 2818 2819
2828 2826 2825 2824 2823 2822 2821 2820 2819 2818 2817 2816 2815 2814 2813 2812 2811 2810 2809 2809 2809 2809 2810 2810 2809 2809 2809 2809 2810 2811 2811 2811 2811 2811 2811 2812 2812 2813 2812 2813 2814 2815 2815 2815 2815 2815 2815 2815 2815 2816 2815 2815 2814 2815 2815 2813 2811 2811 2812 2811 2811 2811 2812
2821 2820 2818 2817 2816 2815 2814 2813 2811 2810 2810 2809 2808 2806 2805 2805 2804 2803 2802 2801 2801 2801 2801 2802 2802 2802 2802 2803 2803 2804 2805 2805 2804 2804 2805 2805 2805 2805 2804 2805 2806 2807 2808 2808 2808 2808 2807 2806 2806 2806 2807 2807 2807 2807 2807 2804 2803 2805 2805 2804 2803 2804 2805
2815 2813 2812 2811 2809 2808 2807 2806 2805 2804 2803 2802 2801 2799 2798 2797 2797 2796 2795 2794 2794 2793 2793 2793 2793 2795 2796 2797 2797 2798 2798 2798 2798 2797 2798 2798 2797 2796 2796 2798 2799 2799 2800 2800 2799 2800 2800 2799 2799 2798 2798 2798 2799 2800 2799 2795 2795 2797 2797 2795 2796 2797 2796
2809 2807 2806 2804 2803 2802 2801 2799 2798 2797 2796 2795 2794 2793 2792 2791 2790 2788 2788 2787 2787 2786 2786 2786 2786 2787 2788 2790 2791 2792 2792 2793 2792 2791 2790 2790 2789 2788 2790 2792 2792 2791 2791 2791 2791 2791 2791 2791 2791 2791 2790 2790 2791 2792 2792 2791 2790 2789 2788 2788 2788 2789 2788
2802 2801 2800 2798 2797 2796 2794 2793 2792 2791 2789 2789 2788 2787 2785 2784 2783 2782 2781 2781 2780 2780 2780 2780 2780 2780 2781 2782 2783 2784 2785 2785 2786 2785 2782 2780 2780 2781 2784 2785 2784 2783 2784 2783 2782 2783 2783 2783 2783 2783 2783 2783 2783 2784 2786 2786 2785 2784 2783 2782 2781 2781 2780
2797 2795 2794 2793 2792 2790 2789 2787 2786 2785 2784 2783 2782 2781 2780 2778 2777 2776 2775 2774 2774 2773 2773 2773 2773 2774 2774 2775 2775 2777 2777 2777 2778 2777 2775 2773 2773 2774 2775 2775 2775 2775 2776 2774 2774 2775 2775 2775 2776 2776 2777 2778 2778 2779 2780 2780 2780 2779 2778 2777 2776 2775 2774
2791 2790 2789 2788 2786 2785 2783 2782 2780 2779 2778 2778 2776 2775 2774 2773 2772 2772 2770 2769 2768 2767 2767 2767 2766 2767 2767 2768 2769 2770 2770 2770 2770 2769 2768 2767 2767 2767 2767 2766 2765 2765 2765 2765 2766 2767 2767 2768 2770 2771 2772 2773 2774 2775 2776 2775 2774 2773 2772 2771 2769 2768 2768
2786 2785 2783 2782 2781 2779 2778 2776 2775 2774 2773 2772 2771 2769 2768 2767 2767 2766 2765 2764 2762 2762 2761 2761 2761 2761 2761 2761 2762 2762 2762 2761 2761 2760 2760 2760 2761 2760 2760 2759 2757 2756 2755 2755 2755 2756 2758 2760 2763 2764 2766 2767 2769 2770 2769 2768 2767 2766 2765 2764 2763 2763 2762
2781 2779 2777 2776 2775 2774 2772 2771 2770 2768 2767 2766 2764 2763 2763 2762 2761 2760 2758 2757 2756 2755 2755 2754 2754 2754 2754 2754 2753 2753 2752 2751 2752 2752 2752 2752 2753 2752 2751 2750 2749 2749 2748 2747 2746 2747 2748 2751 2754 2756 2758 2760 2761 2761 2760 2760 2760 2760 2759 2758 2757 2756 2756
2776 2774 2772 2770 2769 2768 2767 2765 2764 2763 2761 2760 2758 2758 2757 2756 2755 2753 2752 2750 2749 2748 2748 2747 2746 2745 2744 2744 2744 2744 2743 2743 2743 2743 2744 2745 2745 2744 2744 2743 2743 2743 2742 2742 2741 2741 2741 2742 2745 2747 2749 2750 2750 2750 2752 2753 2754 2754 2753 2752 2751 2750 2749
2771 2769 2766 2765 2763 2762 2761 2760 2759 2757 2756 2754 2752 2752 2751 2749 2748 2746 2744 2743 2741 2740 2739 2738 2737 2736 2735 2734 2734 2735 2735 2735 2735 2735 2735 2736 2737 2737 2737 2737 2737 2737 2736 2736 2736 2736 2736 2737 2738 2739 2739 2740 2740 2741 2744 2745 2746 2746 2746 2746 2745 2742 2742
2766 2764 2761 2759 2758 2756 2755 2754 2753 2751 2750 2748 2747 2745 2744 2742 2741 2739 2737 2735 2733 2732 2731 2729 2728 2728 2727 2727 2726 2726 2726 2727 2727 2727 2727 2728 2729 2730 2730 2730 2730 2729 2729 2729 2730 2730 2731 2731 2731 2731 2732 2732 2732 2733 2735 2737 2738 2738 2738 2738 2737 2734 2734
2761 2758 2756 2754 2752 2751 2749 2748 2747 2746 2745 2743 2741 2739 2737 2735 2733 2731 2730 2728 2727 2725 2723 2722 2721 2720 2720 2720 2719 2719 2719 2718 2718 2718 2719 2719 2720 2722 2723 2723 2722 2721 2721 2722 2723 2723 2724 2724 2724 2724 2725 2725 2724 2725 2727 2729 2729 2729 2730 2730 2728 2726 2727
2755 2753 2750 2748 2747 2745 2743 2741 2739 2739 2738 2737 2735 2733 2730 2728 2725 2723 2722 2721 2719 2718 2717 2716 2715 2714 2713 2712 2711 2711 2711 2710 2710 2710 2710 2710 2711 2712 2713 2714 2714 2714 2714 2715 2715 2715 2715 2716 2716 2716 2716 2716 2716 2717 2719 2720 2721 2721 2721 2721 2720 2719 2721
2750 2747 2745 2742 2740 2738 2736 2734 2732 2731 2730 2729 2727 2726 2723 2721 2718 2715 2713 2711 2710 2709 2709 2708 2707 2707 2706 2704 2703 2702 2702 2702 2702 2701 2701 2701 2701 2702 2702 2703 2704 2706 2707 2707 2707 2707 2707 2708 2708 2708 2708 2709 2709 2710 2711 2711 2712 2713 2713 2713 2713 2713 2714
2746 2743 2740 2738 2735 2732 2730 2728 2726 2724 2723 2721 2719 2717 2714 2712 2711 2709 2707 2705 2703 2701 2699 2699 2699 2698 2697 2696 2695 2695 2694 2694 2693 2693 2693 2693 2692 2693 2693 2694 2695 2697 2698 2698 2698 2698 2698 2699 2700 2700 2701 2701 2702 2702 2703 2703 2704 2705 2706 2706 2706 2706 2707
2741 2738 2735 2733 2730 2727 2724 2721 2719 2717 2715 2713 2711 2708 2704 2702 2702 2702 2701 2699 2697 2695 2692 2691 2689 2688 2687 2686 2686 2685 2685 2685 2685 2685 2685 2685 2684 2684 2685 2686 2687 2688 2688 2688 2689 2689 2690 2691 2692 2692 2693 2693 2694 2695 2695 2696 2696 2697 2698 2699 2699 2700 2701
2738 2734 2731 2728 2725 2722 2719 2716 2714 2711 2709 2706 2703 2699 2696 2695 2695 2695 2692 2690 2688 2686 2685 2683 2682 2680 2678 2677 2676 2675 2675 2674 2675 2675 2676 2676 2676 2676 2677 2678 2679 2679 2679 2680 2681 2681 2682 2683 2684 2685 2685 2686 2687 2687 2688 2689 2689 2690 2691 2692 2692 2693 2694
2735 2731 2727 2723 2720 2717 2714 2711 2708 2706 2703 2699 2695 2693 2690 2689 2687 2685 2683 2682 2679 2677 2675 2674 2673 2672 2670 2669 2667 2666 2665 2665 2665 2665 2665 2666 2666 2667 2668 2669 2670 2670 2671 2672 2673 2673 2674 2675 2676 2677 2678 2678 2679 2680 2680 2681 2682 2683 2684 2685 2686 2687 2688
2728 2725 2722 2718 2715 2711 2708 2705 2702 2699 2696 2692 2688 2685 2683 2681 2678 2676 2674 2673 2671 2669 2666 2664 2662 2661 2660 2659 2658 2656 2655 2655 2655 2655 2655 2656 2656 2657 2658 2659 2660 2662 2663 2664 2665 2666 2667 2668 2668 2669 2670 2671 2672 2673 2673 2674 2676 2677 2678 2679 2679 2680 2681
Wind_Speed
52 54 55 57 58 59 58 58 57 56 55 55 55 54 53 52 52 53 53 53 53 53 54 54 54 53 52 50 50 49 49 49 50 52 53 53 54 54 53 53 54 55 56 56 56 56 55 54 54 54 52 52 51 51 51 51 52 52 51 50 48 46 46
53 55 56 58 59 59 59 58 58 57 56 56 55 54 52 52 52 52 52 52 52 52 52 53 53 52 51 49 49 49 50 51 52 53 53 53 53 53 52 52 52 53 54 54 55 54 54 54 54 53 52 51 51 51 50 51 51 50 50 49 47 46 46
54 55 56 57 58 59 59 58 58 57 56 56 55 54 52 51 51 51 51 51 52 51 51 52 51 51 49 49 49 50 51 52 53 53 52 52 53 53 52 51 50 51 52 53 54 54 54 54 54 53 52 51 51 50 50 49 49 49 48 47 46 45 45
54 55 56 57 58 58 58 58 57 56 56 56 55 54 52 51 51 51 51 51 51 51 50 50 50 49 49 49 51 52 53 53 52 51 51 52 52 52 51 50 49 49 51 53 54 54 54 53 53 53 53 52 51 50 49 48 48 47 47 45 45 45 45
55 55 56 56 56 56 56 56 55 55 56 55 54 53 52 52 51 51 51 51 50 49 48 48 49 49 49 51 52 52 52 51 50 50 50 51 51 50 49 48 47 49 51 53 54 53 53 53 53 54 53 52 51 50 49 48 48 47 45 44 44 45 46
55 54 54 54 54 54 54 54 54 55 55 54 53 53 52 52 51 50 50 48 47 47 47 48 49 50 51 51 51 50 49 49 49 50 50 50 49 48 47 47 47 49 51 52 53 53 53 54 54 54 54 53 51 50 49 49 48 46 45 44 44 45 46
53 53 52 52 52 52 53 53 53 53 53 53 52 52 51 51 49 48 47 46 46 47 48 49 49 50 50 49 49 49 48 49 49 50 49 49 48 47 47 47 48 49 51 52 52 53 54 54 54 54 54 53 51 50 50 48 46 45 45 45 46 46 46
52 51 51 50 51 51 51 51 52 52 51 51 51 50 49 48 47 46 46 47 47 48 48 49 48 48 48 48 48 49 49 50 49 49 48 48 48 47 47 47 48 50 51 52 53 54 54 55 55 55 54 53 51 50 48 46 45 46 46 45 46 46 47
50 50 49 49 49 49 49 49 49 49 49 48 48 47 46 46 46 46 47 47 47 48 48 48 48 48 48 49 49 49 50 49 47 46 46 46 46 46 46 47 49 50 51 52 54 54 54 55 56 55 54 53 50 48 46 45 45 47 46 46 47 47 47
49 48 48 48 47 47 47 47 47 46 46 45 45 45 46 46 46 46 47 47 47 48 48 48 48 49 49 49 49 49 48 46 45 44 45 45 46 46 47 48 49 50 52 53 54 54 54 55 56 55 53 51 48 46 46 45 45 46 46 47 48 48 47
47 47 47 47 46 46 45 45 44 44 44 44 44 45 45 45 45 46 46 47 48 48 48 48 49 49 49 49 49 48 47 45 45 46 46 47 48 48 49 49 50 51 52 53 54 54 54 55 56 54 51 49 47 46 45 44 44 46 47 47 48 49 48
46 45 45 45 45 45 44 44 44 43 43 44 44 44 45 45 46 46 47 48 48 48 48 49 49 49 50 50 49 48 48 48 48 48 48 49 49 50 50 50 50 52 53 53 53 53 54 55 55 52 50 48 46 45 44 44 45 46 47 47 48 49 48
43 43 43 43 43 43 43 43 44 44 44 44 44 44 45 45 46 47 47 48 48 48 49 49 50 51 51 51 50 50 50 50 49 50 50 50 50 51 50 50 51 52 52 53 53 54 55 54 52 50 48 46 44 45 45 46 46 45 46 47 49 49 48
41 41 41 41 41 42 42 42 43 43 43 44 44 44 45 46 46 47 48 48 49 49 50 51 51 52 52 51 51 51 51 51 50 50 50 50 51 51 50 50 51 52 53 53 53 54 55 52 49 48 47 45 45 46 46 46 45 45 46 48 49 49 49
40 40 40 40 40 40 40 40 41 42 42 43 43 43 45 46 46 47 48 48 49 49 50 50 50 51 52 52 52 52 51 51 50 50 50 50 49 49 49 50 51 51 52 53 54 53 52 49 47 47 47 46 46 46 46 46 46 46 47 49 50 50 49
39 39 39 39 39 39 40 40 40 40 40 41 41 42 43 44 45 46 47 47 47 47 48 48 49 50 50 51 51 50 50 50 49 49 48 48 48 48 49 51 51 52 52 53 53 52 50 48 47 46 46 46 46 46 45 45 46 47 48 49 50 50 49
39 40 40 40 40 40 40 40 40 40 40 39 39 39 40 41 42 44 45 46 46 46 46 46 47 48 49 49 49 48 48 47 46 46 46 47 47 48 50 52 53 52 52 51 50 49 48 48 47 46 46 47 47 46 44 45 48 48 48 49 49 50 48
39 39 40 40 40 40 40 40 40 39 39 39 38 38 39 40 41 42 44 45 46 46 46 46 46 46 46 46 46 45 44 43 43 44 46 47 48 50 53 54 53 51 50 49 47 47 47 48 48 47 47 47 46 45 45 48 50 48 47 48 49 49 47
39 39 39 39 39 39 39 39 39 39 39 38 38 37 38 39 40 42 43 44 46 46 46 46 46 45 44 43 43 43 42 41 42 45 47 48 50 53 54 52 50 49 48 48 47 46 46 47 47 47 47 47 46 45 45 47 49 47 47 49 49 47 47
37 37 38 38 38 38 38 38 38 38 38 37 37 36 36 38 40 41 42 43 44 45 45 46 46 45 43 43 43 43 43 43 44 46 49 50 52 53 52 48 47 48 48 47 47 46 46 47 46 47 48 48 48 46 45 45 47 48 48 49 49 48 48
36 36 36 36 36 36 36 36 36 36 36 36 36 35 35 36 38 40 41 42 42 43 44 45 45 46 45 45 45 45 45 45 45 46 49 51 51 50 48 46 47 47 46 47 47 47 47 47 47 47 48 48 47 46 45 44 45 46 47 48 48 47 47
34 34 34 33 33 33 34 34 35 35 34 34 34 34 34 35 37 38 40 41 43 44 45 46 46 47 47 47 48 47 46 46 45 45 47 49 49 49 47 47 48 48 47 48 49 48 48 48 48 48 47 47 46 45 44 44 44 44 44 44 45 46 46
32 32 32 31 32 32 33 33 34 34 33 33 33 33 34 34 35 37 39 41 43 44 46 47 47 48 48 48 48 47 46 46 45 45 46 47 46 46 46 46 48 49 49 49 49 49 49 49 48 47 46 45 44 42 41 41 41 40 41 42 44 45 45
31 32 32 32 31 32 32 33 33 33 32 32 32 33 34 34 35 36 38 40 42 44 45 46 46 47 47 47 46 46 45 45 45 46 47 46 45 45 44 45 47 48 50 50 51 51 50 49 47 45 44 42 40 38 38 38 38 39 41 43 44 45 45
32 32 33 33 33 32 32 32 33 32 32 33 33 34 34 35 35 37 38 40 41 43 44 44 45 46 46 46 46 46 46 47 47 46 47 46 45 45 46 47 48 49 50 51 52 52 51 50 47 44 42 40 39 38 39 39 39 39 41 44 45 46 46
32 32 33 33 33 33 32 32 32 33 33 34 34 34 34 35 36 37 39 41 42 43 44 44 45 46 47 47 48 47 47 48 48 47 46 45 45 45 46 47 47 48 49 50 51 51 51 50 47 45 43 42 42 42 41 40 40 40 42 44 45 46 47
31 32 33 33 33 33 33 32 32 33 33 34 35 35 35 36 37 38 40 41 43 44 45 45 46 48 49 49 50 49 49 48 48 48 48 47 45 45 46 46 46 47 48 48 49 49 49 48 47 47 46 46 46 45 43 41 41 42 43 44 45 47 48
31 32 33 34 34 34 34 33 33 34 34 35 35 36 36 37 38 39 41 42 43 45 46 47 48 49 49 50 50 50 50 49 48 48 49 48 47 45 45 45 46 47 48 48 48 48 48 47 47 48 48 48 48 48 45 43 43 44 45 45 47 49 50
32 33 34 35 35 36 36 36 36 35 35 36 36 37 38 39 40 41 42 43 44 45 46 47 48 49 49 50 50 50 50 50 49 49 49 49 47 46 45 45 45 47 47 47 47 47 47 48 48 49 49 49 50 49 48 46 45 45 46 47 49 50 50
34 35 36 37 38 38 39 40 40 39 38 37 37 37 38 40 42 43 43 43 43 44 44 45 46 46 47 47 48 48 48 48 48 48 48 48 47 46 45 45 45 45 45 46 47 47 47 48 48 49 49 49 50 50 48 47 46 46 47 48 49 49 48
35 37 38 39 40 40 41 42 42 41 40 39 38 38 39 40 41 42 43 44 44 45 45 45 45 45 45 46 47 47 47 47 47 47 47 46 45 45 44 44 44 44 44 44 45 46 46 46 46 47 47 47 48 47 46 45 45 45 46 47 48 48 47
36 37 38 39 40 41 42 42 42 41 41 41 41 41 41 42 42 42 44 44 45 46 47 47 46 46 46 46 47 47 47 47 47 47 47 47 47 46 46 45 45 44 43 44 45 45 45 45 45 45 45 45 45 44 44 44 45 45 45 46 47 47 47
37 38 38 39 39 41 42 43 43 43 42 42 42 43 45 46 45 44 44 44 44 45 46 47 47 47 48 48 48 49 48 48 48 48 48 48 48 48 48 47 46 45 45 46 46 46 47 46 46 45 45 45 44 44 44 45 45 45 45 46 46 46 46
34 36 38 39 40 40 41 42 43 43 43 44 45 46 48 49 47 45 45 45 46 47 47 47 47 48 49 50 50 50 51 51 51 50 50 49 49 49 48 48 47 47 47 47 47 47 47 47 47 46 46 45 45 44 44 44 44 44 45 45 45 45 45
32 34 36 39 40 41 41 42 43 43 44 45 46 47 47 47 47 47 47 47 47 49 49 49 49 49 50 51 51 52 52 52 52 52 52 51 51 50 50 49 48 47 47 46 46 47 47 47 47 46 46 45 44 44 44 44 44 44 44 44 44 44 44
37 37 37 38 40 41 42 42 42 43 44 45 46 47 47 47 47 48 47 47 47 48 49 50 51 51 51 52 53 53 54 54 54 54 53 53 53 52 51 51 49 48 47 46 46 46 45 45 46 45 44 44 43 43 43 43 43 43 42 42 42 43 43
Wind_Direction
280 281 281 280 279 278 277 276 274 272 271 270 269 270 270 270 270 270 270 269 268 266 265 264 263 263 263 263 262 262 262 265 268 269 269 269 268 267 267 267 267 268 269 269 270 270 270 269 269 270 271 272 273 275 277 278 279 279 277 276 275 274 274
280 280 280 279 279 278 277 276 275 273 271 270 270 270 270 270 269 269 269 268 267 266 264 263 263 263 262 260 260 261 264 267 269 269 268 267 267 267 267 266 266 267 268 268 269 269 269 269 269 270 271 272 274 275 276 277 277 277 275 274 274 274 274
280 280 279 279 278 277 277 276 274 273 271 271 270 270 269 269 269 268 268 267 266 265 263 262 261 260 259 259 261 264 266 268 267 266 265 265 265 265 265 265 265 266 267 267 268 268 267 268 268 269 271 273 275 276 276 276 275 274 273 273 274 274 275
281 279 279 278 277 276 276 275 273 272 271 270 270 269 269 268 267 267 267 266 265 263 261 261 260 260 260 262 264 266 266 266 265 264 263 263 264 263 263 263 263 264 266 266 266 266 266 266 266 267 271 274 276 277 276 274 273 272 272 272 273 274 275
281 280 278 277 276 275 274 273 272 271 270 270 269 269 268 268 268 268 267 266 265 263 261 261 262 263 264 265 266 266 265 265 264 263 263 263 263 262 261 260 260 262 263 263 264 265 265 265 264 267 271 275 276 276 274 273 271 271 271 272 273 274 274
281 280 278 276 275 273 272 271 270 269 269 269 269 269 269 269 269 269 268 266 265 264 264 264 265 266 266 265 265 265 264 264 264 264 264 264 263 261 259 258 258 259 260 261 262 263 263 263 265 268 273 275 276 275 273 272 271 272 272 272 272 273 274
281 279 276 275 273 271 270 269 269 269 269 269 270 270 270 270 270 270 269 268 267 267 266 267 267 266 265 265 265 264 264 264 265 265 265 264 262 259 257 256 256 257 259 260 261 261 262 263 266 269 273 275 275 274 273 273 273 272 272 272 273 274 275
279 277 275 273 271 270 269 269 269 270 270 270 270 270 270 270 270 269 269 269 268 268 267 266 265 265 264 264 264 264 264 265 265 265 263 261 259 257 255 255 255 256 257 259 260 261 262 264 266 270 273 274 274 273 273 274 273 272 271 273 274 275 276
278 276 275 273 272 271 270 270 270 270 270 270 269 269 269 269 269 269 268 268 267 266 265 264 264 264 264 264 264 264 265 264 263 261 259 257 256 254 254 253 254 255 257 258 259 260 262 264 267 271 273 274 273 273 273 272 272 272 274 275 275 275 277
277 276 276 275 274 273 272 271 271 271 270 270 269 269 269 268 268 267 267 266 265 264 264 264 264 264 264 264 264 263 262 261 259 257 256 255 254 253 253 253 254 255 257 258 259 261 263 265 268 272 274 273 273 272 271 271 273 274 274 274 275 277 279
277 277 276 276 275 274 274 273 272 271 271 270 269 268 268 267 266 266 265 264 264 264 264 264 263 263 263 263 262 262 261 259 258 257 256 255 254 253 253 254 255 256 257 258 260 262 264 267 270 273 273 272 272 271 272 272 273 273 273 275 277 279 280
279 278 277 277 276 275 274 273 272 271 270 269 268 267 266 266 265 265 264 264 263 263 263 262 262 262 261 261 261 261 260 259 258 256 255 254 254 254 254 254 254 256 257 259 261 263 266 269 272 273 272 272 272 272 272 271 270 272 274 276 278 279 281
279 279 278 277 276 275 274 273 272 271 270 269 268 267 266 265 265 265 264 263 263 262 262 261 261 261 261 261 261 260 259 258 257 256 255 254 254 254 254 254 254 256 258 260 263 266 269 271 272 272 271 271 271 270 270 270 271 273 274 276 277 279 280
279 278 277 277 276 275 274 274 273 272 271 270 269 268 267 267 266 265 264 264 263 262 262 262 262 262 262 261 260 260 259 258 257 256 255 255 255 255 255 255 255 257 259 262 266 269 271 271 270 270 270 269 268 269 270 271 272 272 273 275 276 277 279
280 279 278 278 277 276 276 275 274 273 272 271 270 268 267 267 267 266 265 264 264 263 263 263 262 262 262 261 260 259 259 258 257 256 256 256 256 255 255 255 256 258 262 266 268 269 269 268 268 268 268 267 268 268 269 270 271 272 273 274 275 277 279
281 281 280 279 278 277 276 275 275 274 273 272 271 269 268 267 268 268 267 266 265 263 263 262 262 261 261 261 260 260 259 258 257 256 256 256 256 255 255 256 258 261 265 267 268 268 267 267 266 266 266 266 267 268 269 270 271 271 272 273 276 279 279
283 282 281 280 279 278 277 276 276 275 274 273 271 270 268 267 268 268 268 268 266 264 262 261 260 260 260 260 260 259 259 258 257 257 256 256 256 256 257 259 262 264 265 266 266 267 267 267 266 265 265 265 266 267 267 267 268 269 271 274 277 278 279
283 282 281 281 280 279 278 278 277 276 275 274 272 270 268 266 266 265 265 266 266 265 264 262 260 259 259 260 260 259 258 257 256 256 256 256 257 259 261 262 264 265 265 265 264 264 265 266 266 266 266 266 267 268 267 267 268 271 273 274 277 278 278
284 283 283 282 281 281 280 279 278 278 276 275 273 270 267 266 265 263 263 263 264 264 264 264 263 262 260 259 259 259 257 256 256 257 258 259 261 262 263 264 265 265 265 264 264 264 264 264 265 266 267 267 267 267 267 269 273 276 276 277 279 280 279
285 284 284 283 283 282 281 281 280 279 278 276 273 270 267 266 265 265 264 264 264 265 265 265 266 266 264 262 259 258 258 258 259 261 262 262 262 262 264 265 265 265 264 264 264 263 263 262 262 263 264 265 266 266 266 268 273 276 278 279 280 279 278
286 286 286 285 285 284 283 282 281 280 278 277 274 271 268 266 266 266 266 266 265 265 266 266 266 267 267 266 264 263 263 263 263 264 264 264 263 263 264 263 262 262 262 262 261 261 261 261 261 261 262 264 266 268 268 269 270 273 275 277 278 278 277
289 289 288 288 287 286 284 283 281 280 279 277 276 274 271 268 267 265 265 266 266 266 266 266 266 266 266 266 266 266 266 266 265 263 263 264 265 265 265 264 262 261 259 258 258 258 258 258 259 260 261 262 264 266 268 269 270 271 271 272 272 273 273
291 290 289 288 287 285 284 283 282 281 280 279 277 275 273 270 268 265 264 265 265 265 265 266 266 266 266 266 266 265 265 264 264 263 263 263 263 264 264 264 264 263 261 260 259 258 257 257 258 259 260 261 262 264 265 266 267 267 267 267 267 268 269
293 291 290 288 287 286 284 284 283 283 282 280 278 276 274 272 270 268 266 265 265 265 265 265 266 266 267 267 266 266 265 263 262 262 261 261 261 260 258 258 260 261 263 263 263 263 263 263 263 263 264 265 265 263 262 261 261 261 262 263 264 265 267
294 293 291 290 288 287 286 286 286 285 283 281 279 277 276 274 273 271 270 269 268 268 268 268 268 268 267 267 266 265 265 264 262 261 261 261 260 258 257 256 257 259 260 262 265 267 269 270 269 269 268 267 265 262 258 257 257 258 260 262 263 264 266
295 293 292 291 290 290 289 288 287 286 285 283 282 280 279 277 275 274 272 271 270 269 269 269 268 268 268 266 265 264 264 264 264 263 262 261 260 259 258 258 259 259 260 261 264 266 268 271 272 272 270 267 265 262 260 258 257 258 259 261 263 264 265
296 295 293 293 292 292 291 291 290 289 287 285 284 282 280 278 276 274 272 271 270 269 269 268 266 266 266 266 266 266 265 264 264 264 264 262 260 259 259 259 259 259 260 261 261 263 265 267 268 268 268 267 266 265 263 261 259 259 259 260 262 263 263
297 296 295 295 295 295 295 294 292 290 288 287 285 283 281 278 276 273 271 270 269 268 268 267 267 266 266 266 267 267 267 267 265 265 264 264 263 261 260 260 259 259 258 259 260 261 262 263 263 264 264 265 265 265 264 262 260 259 259 260 261 262 262
300 298 297 297 297 297 296 295 292 291 289 288 286 285 283 280 277 275 273 271 270 270 269 269 269 269 269 269 268 268 268 268 267 267 266 265 264 262 259 258 257 258 258 259 259 259 260 260 260 260 261 261 261 262 262 261 260 260 260 260 260 261 262
303 302 301 300 300 299 298 296 295 294 293 291 289 287 285 283 282 280 278 276 274 272 271 270 270 269 269 269 268 268 267 266 266 266 265 265 264 262 260 257 255 255 255 256 256 257 257 257 257 258 258 258 259 260 260 260 260 259 259 260 261 262 263
304 303 303 302 301 300 299 298 298 298 297 295 293 290 288 286 284 283 282 281 280 278 276 273 272 270 269 267 267 266 265 264 264 263 263 262 262 261 259 257 255 253 253 253 253 254 254 254 255 255 256 256 257 258 259 258 258 257 258 259 260 262 263
304 303 302 302 302 301 300 300 300 299 299 297 296 293 290 286 283 282 283 284 284 283 282 281 279 276 274 271 269 267 266 264 263 262 262 261 260 259 258 258 257 256 254 253 252 252 253 253 253 253 254 254 255 255 255 255 256 256 257 258 259 261 262
306 305 304 304 303 302 302 302 302 301 300 298 296 293 290 288 288 288 287 286 283 281 281 280 279 278 277 274 273 271 269 266 264 263 261 260 259 258 258 257 257 256 254 253 252 252 252 252 252 253 253 254 253 254 254 254 255 256 256 257 258 260 261
305 304 304 303 302 301 301 300 299 298 297 295 293 291 290 291 292 290 288 285 283 280 279 277 275 275 274 273 272 272 270 269 268 266 264 262 260 259 258 257 256 255 254 253 253 252 252 252 252 252 253 253 253 253 254 254 254 255 256 257 258 259 260
305 304 303 302 301 301 300 299 298 297 296 294 293 292 292 291 290 288 285 283 282 280 279 277 275 273 272 271 270 269 269 268 267 267 266 265 263 262 261 259 257 256 255 254 253 253 253 253 253 253 253 253 254 254 254 254 254 254 255 256 257 258 259
310 308 306 304 303 302 301 300 300 298 297 295 294 293 292 290 288 287 285 283 281 279 277 276 275 273 271 270 269 268 267 267 266 265 265 264 264 263 262 261 260 258 257 256 255 254 253 253 253 254 254 254 254 253 253 253 253 253 253 254 254 255 256